User: anonymous   Login
Location: Hastringsfeld
(50.9620°N, 10.4787°E)
Time: 11:15:10
(UTC+00:00)
Language:

CBERS-1 - Orbit

View from above orbital plane
View from above orbital plane
View from above satellite
View from above satellite

Ground track
Ground track

The orbit data is extracted from the following two-line orbital elements,

1 25940U 99057A   24056.94915986  .00000527  00000-0  19693-3 0  9993
2 25940  98.7936  34.0810 0004416 334.1204  25.9759 14.36127201276584
Epoch (UTC): 25 February 2024 22:46:47
Eccentricity: 0.0004416
inclination: 98.7936°
perigee height: 768 km
apogee height: 774 km
right ascension of ascending node: 34.0810°
argument of perigee: 334.1204°
revolutions per day: 14.36127201
mean anomaly at epoch: 25.9759°
orbit number at epoch: 27658

The dashed part of the orbit path shows where the satellite is in the earth's shadow,  

DLR